ETD71M EGLL-OMAA

Flight info

Callsign ETD71M
Flight time N/A
Altitude 37000
Route DET L6 DVR UL9 KONAN DCT KOK DCT REMBA DCT LIRSU DCT LALMI DCT ABTAL DCT LATLO DCT OBEDI DCT BERTA DCT VANAX DCT NOVLO DCT IRDIV DCT REMSO DCT MEDUX UM867 KOGAT DCT DISOR DCT FSK DCT RIKSO UP14 LAVTA UN135 NESIL UT39 TOMBI DCT BALMA/N0485F390 UR655 CAK UN310 LATEB N310 BASEM R785 RASLI P559 TRF R23 NEVOL N318 DASVA N685 ORSIS/N0492F350 N685 UMEVU Q415 UKILI
Aircraft A35K/H-SDE2E3GHIJ1J3J4J5LM1ORWXY/LB1D1

Departure

Time 2026-05-06 13:54
Airport London Heathrow Airport (EGLL)

Arrival

Time N/A
Airport Zayed International Airport (OMAA)
Time Latitude Longitude Altitude Speed Heading
2026-05-06 13:00 51.46186 -0.44640 92 ft 0 kts 131°
2026-05-06 13:39 51.46187 -0.44642 92 ft 2 kts 131°
2026-05-06 13:40 51.46200 -0.44664 96 ft 3 kts 131°
2026-05-06 13:40 51.46208 -0.44680 95 ft 3 kts 122°
2026-05-06 13:40 51.46219 -0.44720 94 ft 3 kts 98°
2026-05-06 13:40 51.46219 -0.44751 94 ft 3 kts 80°
2026-05-06 13:41 51.46216 -0.44772 94 ft 3 kts 68°
2026-05-06 13:41 51.46207 -0.44799 92 ft 3 kts 51°
2026-05-06 13:41 51.46195 -0.44820 93 ft 3 kts 42°
2026-05-06 13:41 51.46191 -0.44825 93 ft 0 kts 43°
2026-05-06 13:45 51.46219 -0.44785 94 ft 5 kts 42°
2026-05-06 13:45 51.46249 -0.44742 94 ft 7 kts 41°
2026-05-06 13:46 51.46280 -0.44716 94 ft 4 kts
2026-05-06 13:46 51.46304 -0.44733 95 ft 4 kts 319°
2026-05-06 13:46 51.46315 -0.44776 93 ft 5 kts 283°
2026-05-06 13:46 51.46318 -0.44842 95 ft 7 kts 271°
2026-05-06 13:47 51.46318 -0.44931 95 ft 9 kts 270°
2026-05-06 13:47 51.46317 -0.45041 95 ft 11 kts 269°
2026-05-06 13:47 51.46316 -0.45176 95 ft 13 kts 269°
2026-05-06 13:47 51.46317 -0.45330 95 ft 14 kts 269°
2026-05-06 13:48 51.46315 -0.45493 97 ft 15 kts 269°
2026-05-06 13:48 51.46321 -0.45660 97 ft 16 kts 275°
2026-05-06 13:48 51.46324 -0.45854 93 ft 18 kts 269°
2026-05-06 13:48 51.46322 -0.46062 94 ft 19 kts 269°
2026-05-06 13:49 51.46320 -0.46292 95 ft 22 kts 270°
2026-05-06 13:49 51.46320 -0.46538 95 ft 23 kts 270°
2026-05-06 13:49 51.46321 -0.46802 94 ft 24 kts 270°
2026-05-06 13:49 51.46321 -0.47063 94 ft 20 kts 269°
2026-05-06 13:50 51.46321 -0.47283 95 ft 20 kts 273°
2026-05-06 13:50 51.46338 -0.47483 95 ft 18 kts 273°
2026-05-06 13:50 51.46323 -0.47679 96 ft 18 kts 246°
2026-05-06 13:50 51.46261 -0.47859 97 ft 18 kts 249°
2026-05-06 13:51 51.46249 -0.48067 93 ft 19 kts 270°
2026-05-06 13:51 51.46249 -0.48301 90 ft 23 kts 269°
2026-05-06 13:51 51.46250 -0.48528 92 ft 17 kts 274°
2026-05-06 13:51 51.46295 -0.48691 94 ft 15 kts 317°
2026-05-06 13:52 51.46383 -0.48749 96 ft 13 kts 352°
2026-05-06 13:52 51.46449 -0.48741 96 ft 8 kts 26°
2026-05-06 13:52 51.46475 -0.48685 96 ft 3 kts 69°
2026-05-06 13:52 51.46478 -0.48657 97 ft 2 kts 85°
2026-05-06 13:53 51.46478 -0.48642 95 ft 1 kts 86°
2026-05-06 13:53 51.46481 -0.48480 94 ft 42 kts 89°
2026-05-06 13:53 51.46480 -0.47641 92 ft 105 kts 89°
2026-05-06 13:53 51.46484 -0.46183 97 ft 155 kts 91°
2026-05-06 13:54 51.46456 -0.44369 569 ft 163 kts 91°
2026-05-06 13:54 51.46320 -0.42555 1285 ft 169 kts 99°
2026-05-06 13:54 51.45840 -0.40688 1575 ft 195 kts 115°
2026-05-06 13:54 51.45128 -0.38662 1791 ft 222 kts 116°
2026-05-06 13:55 51.44497 -0.36258 2074 ft 245 kts 105°
2026-05-06 13:55 51.43983 -0.33621 2743 ft 252 kts 103°
2026-05-06 13:55 51.43468 -0.30902 3478 ft 256 kts 104°
2026-05-06 13:55 51.42941 -0.28152 4171 ft 260 kts 104°
2026-05-06 13:56 51.42482 -0.25312 4856 ft 264 kts 99°
2026-05-06 13:56 51.42118 -0.22447 5548 ft 267 kts 98°
2026-05-06 13:56 51.41740 -0.19500 5921 ft 269 kts 99°
2026-05-06 13:56 51.41352 -0.16572 5999 ft 270 kts 99°
2026-05-06 13:57 51.40956 -0.13618 6000 ft 271 kts 99°
2026-05-06 13:57 51.40548 -0.10659 5999 ft 271 kts 100°
2026-05-06 13:57 51.40134 -0.07732 5996 ft 271 kts 100°
2026-05-06 13:57 51.39714 -0.04772 6004 ft 271 kts 101°
2026-05-06 13:58 51.39294 -0.01807 6001 ft 271 kts 101°
2026-05-06 13:58 51.38878 0.01121 6000 ft 271 kts 101°
2026-05-06 13:58 51.38464 0.04039 6000 ft 271 kts 101°
2026-05-06 13:58 51.38045 0.06985 5999 ft 271 kts 101°
2026-05-06 13:59 51.37623 0.09933 5996 ft 271 kts 101°
2026-05-06 13:59 51.37201 0.12851 6002 ft 271 kts 101°
2026-05-06 13:59 51.36775 0.15802 5997 ft 270 kts 101°
2026-05-06 13:59 51.36351 0.18718 6003 ft 271 kts 101°
2026-05-06 14:00 51.35930 0.21648 5999 ft 271 kts 101°
2026-05-06 14:00 51.35507 0.24599 6000 ft 271 kts 101°
2026-05-06 14:00 51.35088 0.27505 5992 ft 270 kts 101°
2026-05-06 14:00 51.34664 0.30456 5993 ft 270 kts 101°
2026-05-06 14:01 51.34237 0.33404 6010 ft 271 kts 101°
2026-05-06 14:01 51.33814 0.36326 6016 ft 271 kts 101°
2026-05-06 14:01 51.33392 0.39248 6011 ft 271 kts 101°
2026-05-06 14:01 51.32969 0.42161 6017 ft 270 kts 101°
2026-05-06 14:02 51.32541 0.45106 6018 ft 270 kts 101°
2026-05-06 14:02 51.32119 0.48007 6017 ft 270 kts 101°
2026-05-06 14:02 51.31693 0.50932 6015 ft 270 kts 101°
2026-05-06 14:02 51.31261 0.53877 6014 ft 270 kts 101°
2026-05-06 14:03 51.30833 0.56794 6015 ft 270 kts 102°
2026-05-06 14:03 51.30405 0.59704 6010 ft 270 kts 102°
2026-05-06 14:03 51.29952 0.62635 6165 ft 270 kts 103°
2026-05-06 14:03 51.29437 0.65522 6654 ft 273 kts 105°
2026-05-06 14:04 51.28887 0.68419 7396 ft 276 kts 105°
2026-05-06 14:04 51.28315 0.71392 8192 ft 280 kts 105°
2026-05-06 14:04 51.27745 0.74378 8903 ft 286 kts 105°
2026-05-06 14:04 51.27167 0.77452 9669 ft 290 kts 105°